Location: Kalberh�ni
(46.4610°N, 7.2453°E)
Time: 18:18:54
(UTC+00:00)

Meteor 2-1 Rocket - Pass Details

Date: 01 November 2021
Orbit: 830 x 906 km, 81.3° (Epoch: 28 November)

Event Time Altitude Azimuth Distance (km) Brightness Sun altitude
Rises 16:59:29 0° 147° (SSE) 3,396 7.1 -8.0°
Reaches altitude 10° 17:02:29 10° 131° (SE) 2,455 6.3 -8.5°
Maximum altitude 17:06:25 20° 85° (E) 1,836 5.3 -9.2°
Drops below altitude 10° 17:10:20 10° 40° (NE) 2,449 6.2 -9.8°
Sets 17:13:18 0° 24° (NNE) 3,386 7.0 -10.4°
